Hourly Data Report for October 04, 2017

All times are specified in Local Standard Time (LST). Add 1 hour to adjust for Daylight Saving Time where and when it is observed.

FORT RESOLUTION A
NORTHWEST TERRITORIES

61°10'51.000" N
113°41'23.000" W
160.60 m
2202010
YFR

Related Data

No related data is available for this station

Download Data

Hourly Data (October 2017)
Hourly Data Report for October 4, 2017
Temp Definition
°C
Dew Point Temp Definition
°C
Rel Hum Definition
%
Wind Dir Definition
10's deg

Wind Spd Definition
km/h
Visibility Definition
km
Stn Press Definition
kPa
Hmdx Definition


Wind Chill Definition


Weather Definition


TIME
00:00 Legend Double Dagger 3.8 1.7 86 1 9 LegendMM 100.08     LegendNANA
01:00 Legend Double Dagger 3.4 1.7 89 5 7 LegendMM 100.12     LegendNANA
02:00 Legend Double Dagger 2.4 1.2 92 4 4 LegendMM 100.18     LegendNANA
03:00 Legend Double Dagger 2.6 1.3 91 4 5 LegendMM 100.25     LegendNANA
04:00 Legend Double Dagger 1.8 1.4 97 0 1 LegendMM 100.26     LegendNANA
05:00 Legend Double Dagger 1.0 0.7 98 9 4 LegendMM 100.29     LegendNANA
06:00 Legend Double Dagger 1.2 0.6 96 12 4 LegendMM 100.30     LegendNANA
07:00 Legend Double Dagger 1.1 0.6 97 13 4 LegendMM 100.29     LegendNANA
08:00 Legend Double Dagger 1.9 1.2 95 12 6 LegendMM 100.30     LegendNANA
09:00 Legend Double Dagger 2.3 1.4 94 13 8 LegendMM 100.31     LegendNANA
10:00 Legend Double Dagger 2.9 2.4 96 13 7 LegendMM 100.28     LegendNANA
11:00 Legend Double Dagger 3.6 2.5 92 15 7 LegendMM 100.27     LegendNANA
12:00 Legend Double Dagger 4.3 0.6 77 6 1 LegendMM 100.25     LegendNANA
13:00 Legend Double Dagger 5.4 1.8 78 17 8 LegendMM 100.21     LegendNANA
14:00 Legend Double Dagger 4.7 1.6 80 19 6 LegendMM 100.19     LegendNANA
15:00 Legend Double Dagger 5.4 1.8 77 19 8 LegendMM 100.14     LegendNANA
16:00 Legend Double Dagger 5.7 1.7 75 18 10 LegendMM 100.10     LegendNANA
17:00 Legend Double Dagger 5.0 1.8 80 11 4 LegendMM 100.08     LegendNANA
18:00 Legend Double Dagger 3.1 1.2 88 7 5 LegendMM 100.03     LegendNANA
19:00 Legend Double Dagger 1.8 0.6 92 6 3 LegendMM 100.02     LegendNANA
20:00 Legend Double Dagger 1.3 0.1 92 10 4 LegendMM 99.98     LegendNANA
21:00 Legend Double Dagger 0.4 -0.6 93 8 10 LegendMM 99.95     LegendNANA
22:00 Legend Double Dagger -0.4 -1.4 93 8 7 LegendMM 99.91   -3 LegendNANA
23:00 Legend Double Dagger 0.6 -0.6 91 10 9 LegendMM 99.86     LegendNANA

Notes on Data Quality.

Legend

  • E = Estimated
  • M = Missing
  • NA = Not Available
  • ‡ = Partner data that is not subject to review by the National Climate Archives
Date modified: